Weather Service Report


709 
ASUS46 KSTO 251415
RWRCA 

NORTHERN AND CENTRAL CA REGIONAL WEATHER ROUNDUP
NATIONAL WEATHER SERVICE SACRAMENTO CA 
700 AM PDT THU MAY 25 2017

NOTE: FAIR INDICATES FEW OR NO CLOUDS BELOW 12,000 FEET WITH NO
SIGNIFICANT WEATHER AND/OR OBSTRUCTIONS TO VISIBILITY.

CAZ001-003-251500-
NORTHWEST AREA
  
CITY           SKY/WX    TMP DP  RH WIND       PRES   REMARKS
CRESCENT CITY  SUNNY     48  45  89 N15G25    29.77R                  
UKIAH          CLOUDY    54  49  83 SE5       29.73R                  
$$

CAZ006-505>513-251500-
BAY AREA
  
CITY           SKY/WX    TMP DP  RH WIND       PRES   REMARKS
SANTA ROSA     CLOUDY    52  51  97 S3        29.74R FOG              
SAN RAFAEL     N/A       53  MM  MM MISG
NAPA           CLOUDY    56  49  77 W9        29.75S                  
CONCORD        CLOUDY    58  49  72 SW14      29.74R                  
OAKLAND CITY   N/A      MM  MM  MM MISG
OAKLAND        CLOUDY    58  52  80 SW17G28   29.76R                  
SAN FRAN CITY  N/A       54  MM  80 MISG
SAN FRAN ARPT  CLOUDY    56  48  74 S7        29.76R                  
LIVERMORE      PTSUNNY   57  48  72 SW14      29.74R                  
HAYWARD        CLOUDY    59  46  62 S6        29.75R                  
REDWOOD CITY   N/A       57  MM  76 MISG
MOFFETT ARPT   SUNNY     57  49  74 SE9       29.76R                  
SAN JOSE ARPT  PTSUNNY   57  49  74 SE6       29.76R                  
$$
CAZ034-037-514>518-251500-
CENTRAL COAST
  
CITY           SKY/WX    TMP DP  RH WIND       PRES   REMARKS
WATSONVILLE    CLOUDY    54  53  97 SW5       29.80R                  
SALINAS        CLOUDY    57  50  77 CALM      29.80R                  
MONTEREY       CLOUDY    56  50  80 E3        29.80R                  
SAN LUIS OBISP CLOUDY    58  51  78 SE7       29.83S                  
SANTA MARIA    CLOUDY    54  53  97 SE6       29.84S                  
$$
CAZ015-016-251500-
NORTHERN SACRAMENTO VALLEY
  
CITY           SKY/WX    TMP DP  RH WIND       PRES   REMARKS
REDDING        SUNNY     59  47  64 SE6       29.68R                  
RED BLUFF      SUNNY     58  49  72 S8        29.71R                  
OROVILLE       SUNNY     57  48  72 S15       29.72R                  
$$
CAZ016>018-251500-
SOUTHERN SACRAMENTO VALLEY
  
CITY           SKY/WX    TMP DP  RH WIND       PRES   REMARKS
AUBURN         CLOUDY    50  48  93 SE8       29.73R                  
BEALE AFB      CLOUDY    57  49  76 SE14G22   29.69R                  
LINCOLN        CLOUDY    55  46  71 SE14      29.71R                  
MARYSVILLE     PTSUNNY   55  49  80 SE12      29.71R                  
SAC INTL ARPT  MOSUNNY   55  51  86 SW12      29.70R                  
MATHER AIRPORT CLOUDY    55  50  82 S13G20    29.73S                  
DOWNTOWN SAC   N/A       57  MM  MM MISG
SAC EXEC ARPT  SUNNY     55  51  86 SW16G23   29.72R                  
VACAVILLE      SUNNY     56  50  80 SW20      29.72R                  
TRAVIS AFB     CLOUDY    55  49  78 W20G28    29.71R                  
$$
CAZ019>021-251500-
SAN JOAQUIN VALLEY
  
CITY           SKY/WX    TMP DP  RH WIND       PRES   REMARKS
STOCKTON       SUNNY     56  51  84 N6        29.74R                  
MODESTO        SUNNY     57  50  77 N7        29.73R                  
MERCED         SUNNY     55  48  77 CALM      29.73R                  
LEMOORE        MOSUNNY   57  44  62 NW7       29.74R                  
FRESNO         MOSUNNY   59  50  72 N6        29.72R                  
HANFORD        SUNNY     58  50  75 CALM      29.73R                  
PORTERVILLE      N/A     58  42  55 SE6       29.74R                  
BAKERSFIELD    SUNNY     61  44  53 N15G23    29.71R                  
$$
CAZ011-012-071-251500-
NORTHERN MOUNTAINS
  
CITY           SKY/WX    TMP DP  RH WIND       PRES   REMARKS
YREKA          SUNNY     41  35  79 CALM      29.82S                  
MOUNT SHASTA   SUNNY     43  33  68 CALM      29.80R                  
ALTURAS        SUNNY     43  33  68 NE5       29.82R                  
$$
CAZ011-012-071-251500-
SIERRA NEVADA MTNS
  
CITY           SKY/WX    TMP DP  RH WIND       PRES   REMARKS
BLUE CANYON    SUNNY     53  36  52 SE7       29.80S                  
TRUCKEE        SUNNY     32  30  93 CALM      29.83F                  
TAHOE VLY ARPT SUNNY     40  26  57 CALM      29.82S                  
MAMMOTH LAKES  FAIR      54  28  35 NW13      29.85S                  
$$
  

Return to Home page


Western Regional Climate Center, wrcc@dri.edu